Location: ???????
(55.4362°N, 38.1183°E)
Time: 01:12:46
(UTC+00:00)

METEOR M2 - Pass Details

Date: 05 December 2021
Orbit: 818 x 827 km, 98.4° (Epoch: 28 January)

Event Time Altitude Azimuth Distance (km) Brightness Sun altitude
Rises 17:21:18 0° 213° (SSW) 3,358 ? -35.6°
Reaches altitude 10° 17:24:25 10° 231° (SW) 2,429 ? -36.1°
Maximum altitude 17:28:03 18° 274° (W) 1,921 ? -36.6°
Drops below altitude 10° 17:31:41 10° 317° (NW) 2,438 ? -37.1°
Sets 17:34:50 0° 336° (NNW) 3,375 ? -37.5°
